Fallon NAS, NV

3:59 PM PDT on May 29, 2017 (GMT -0700)
Fallon Naval Air Station

Weather History for KNFL - October, 2012

Change the Weather History Date:

Monday, October 1, 2012

  Actual Average Record
Temperature  
Mean Temperature 67 °F -  
Max Temperature 89 °F 76 °F 95 °F (2010)
Min Temperature 46 °F 39 °F 28 °F (1950)
Cooling Degree Days 2    
Growing Degree Days 17 (Base 50)    
Moisture  
Dew Point 28 °F    
Average Humidity 30    
Maximum Humidity 54    
Minimum Humidity 9    
Precipitation  
Precipitation 0.00 in - - ()
Sea Level Pressure  
Sea Level Pressure 30.11 in    
Wind  
Wind Speed 2 mph (SE)    
Max Wind Speed 6 mph    
Max Gust Speed -    
Visibility 10 miles    
Events      
Averages and records for this station are not official NWS values.
T = Trace of Precipitation, MM = Missing Value Source: NWS Daily Summary

Daily Weather History Graph

Daily Weather History Graph

Search for Another Location

Airport or City:

Trip Planner

Search our weather history database for the weather conditions in past years. The results will help you decide how hot, cold, wet, or windy it might be!

Date:

Astronomy

Oct. 01, 2012 Rise Set
Actual Time 6:51 AM PDT 6:36 PM PDT
Civil Twilight 6:24 AM PDT 7:03 PM PDT
Nautical Twilight 5:53 AM PDT 7:34 PM PDT
Astronomical Twilight 5:22 AM PDT 8:05 PM PDT
Moon 7:17 PM PDT (10/1) 8:24 AM PDT (10/1)
Length of Visible Light 12h 38m
Length of Day
11h 44m
Full, 97% of the Moon is Illuminated
Oct 1
Full
Oct 8
Last Quarter
Oct 15
New
Oct 21
First Quarter
Oct 29
Full

Hourly Weather History & Observations

Time (PDT) Temp. Dew Point Humidity Pressure Visibility Wind Dir Wind Speed Gust Speed Precip Events Conditions
12:56 AM 54.0 °F 30.0 °F 40% 30.12 in 10.0 mi WNW 4.6 mph - N/A   Clear
1:56 AM 50.0 °F 32.0 °F 50% 30.13 in 10.0 mi Calm Calm - N/A   Clear
2:56 AM 48.9 °F 28.9 °F 46% 30.13 in 10.0 mi Calm Calm - N/A   Clear
3:56 AM 48.0 °F 28.0 °F 46% 30.13 in 10.0 mi Calm Calm - N/A   Clear
4:56 AM 48.0 °F 32.0 °F 54% 30.14 in 10.0 mi Calm Calm - N/A   Clear
5:56 AM 46.9 °F 28.0 °F 48% 30.15 in 10.0 mi South 4.6 mph - N/A   Clear
6:16 AM 48.2 °F 28.4 °F 46% 30.26 in 10.0 mi South 3.5 mph - N/A   Clear
6:56 AM 46.9 °F 26.1 °F 44% 30.15 in 10.0 mi South 5.8 mph - N/A   Clear
7:56 AM 53.1 °F 26.1 °F 35% 30.17 in 10.0 mi Calm Calm - N/A   Clear
8:56 AM 63.0 °F 27.0 °F 26% 30.18 in 10.0 mi Calm Calm - N/A   Clear
9:56 AM 70.0 °F 26.1 °F 19% 30.18 in 10.0 mi Calm Calm - N/A   Clear
10:56 AM 73.9 °F 28.0 °F 18% 30.17 in 10.0 mi Calm Calm - N/A   Clear
11:56 AM 77.0 °F 27.0 °F 16% 30.16 in 10.0 mi Calm Calm - N/A   Clear
12:56 PM 81.0 °F 27.0 °F 14% 30.14 in 10.0 mi Calm Calm - N/A   Clear
1:56 PM 84.9 °F 26.1 °F 12% 30.10 in 10.0 mi NNE 4.6 mph - N/A   Clear
2:56 PM 87.1 °F 26.1 °F 11% 30.08 in 10.0 mi North 4.6 mph - N/A   Clear
3:56 PM 88.0 °F 25.0 °F 10% 30.06 in 10.0 mi Variable 4.6 mph - N/A   Clear
4:56 PM 88.0 °F 23.0 °F 9% 30.04 in 10.0 mi North 5.8 mph - N/A   Clear
5:56 PM 86.0 °F 26.1 °F 11% 30.03 in 10.0 mi NE 4.6 mph - N/A   Clear
6:56 PM 75.0 °F 30.9 °F 20% 30.03 in 10.0 mi NE 4.6 mph - N/A   Clear
7:56 PM 66.9 °F 30.0 °F 25% 30.03 in 10.0 mi Calm Calm - N/A   Clear
8:56 PM 64.9 °F 28.0 °F 25% 30.03 in 10.0 mi Calm Calm - N/A   Clear
9:56 PM 61.0 °F 33.1 °F 35% 30.03 in 10.0 mi WSW 4.6 mph - N/A   Clear
10:56 PM 55.9 °F 30.9 °F 39% 30.03 in 10.0 mi SSE 5.8 mph - N/A   Clear
11:56 PM 54.0 °F 33.1 °F 45% 30.03 in 10.0 mi South 5.8 mph - N/A   Clear